GFSSGP_250_spd_132.txt.gz
Wind_Speed
36 34 27 23 20 21 21 19 24 27 27 26 24 18 25 26 22 22 22 25 19 24 27 33 33 34 37 35 29 23 15 11 10 8 8 10 12 15 18 19 21 21 19 21 19 15 14 14 17
38 37 36 31 28 26 19 21 24 27 29 32 31 27 23 26 21 23 22 23 20 25 25 34 29 34 34 32 32 22 15 9 8 7 7 10 13 15 16 17 18 18 15 14 17 15 17 17 15
40 41 39 40 35 34 27 21 25 25 30 27 30 27 29 26 23 26 22 24 23 23 28 30 29 30 30 31 33 22 16 9 6 4 5 8 12 15 16 16 17 16 13 14 16 16 12 9 11
44 44 43 43 43 40 37 27 27 25 27 29 29 31 29 28 27 26 22 24 25 24 28 19 29 23 27 28 33 20 14 9 5 4 1 6 9 13 16 17 17 17 16 16 17 16 15 14 10
53 51 47 47 47 46 40 38 32 31 28 31 33 33 31 28 27 24 25 23 19 23 23 21 21 19 22 24 28 24 17 10 8 7 7 6 9 12 14 15 19 21 23 22 21 18 15 12 9
59 56 54 52 50 49 47 40 44 35 35 34 33 32 32 30 30 21 26 25 26 22 18 20 15 15 16 19 24 20 19 17 14 15 12 13 16 16 20 22 24 23 22 20 18 16 14 12 6
64 61 62 59 58 53 46 48 50 45 40 36 38 31 33 33 32 24 26 24 17 18 16 14 14 12 13 14 16 16 19 19 19 18 18 18 21 22 21 21 20 18 16 15 15 13 10 4 2
68 68 66 66 64 57 51 52 52 51 48 42 40 33 36 35 34 34 25 26 22 18 17 14 13 12 10 9 11 11 14 14 15 13 15 16 18 19 17 17 16 13 12 11 9 6 3 1 3
71 71 71 73 70 64 58 62 58 54 53 51 44 39 38 37 35 35 32 27 26 25 23 19 15 14 9 6 9 8 8 10 12 11 10 11 11 14 13 11 11 10 7 5 3 3 4 8 10
74 73 74 76 74 70 67 68 60 63 57 57 51 46 46 42 38 38 39 35 31 32 25 24 20 17 15 10 8 9 8 7 6 9 7 8 7 5 5 4 3 3 4 4 4 6 9 12 15
80 78 77 77 70 77 77 72 69 68 66 60 59 50 52 49 44 42 44 41 39 35 26 25 24 24 20 16 14 11 12 10 8 7 6 4 1 1 1 3 5 6 8 10 12 13 16 19 22
85 82 82 81 76 81 81 76 74 72 71 65 63 57 58 53 49 50 47 44 41 40 37 26 27 28 24 21 19 17 15 16 15 13 11 10 10 10 10 10 11 12 13 15 17 18 20 23 26
88 87 87 85 86 85 80 81 79 76 77 70 71 64 61 58 56 55 55 51 47 44 42 39 31 33 31 29 25 22 21 21 20 19 18 17 15 16 17 17 17 18 19 21 22 25 27 29 31
92 91 91 89 88 88 86 83 83 82 84 79 76 71 66 65 59 58 56 53 54 50 47 45 41 35 36 36 31 28 26 25 24 25 22 22 22 21 21 21 23 25 25 27 29 30 33 34 35
90 89 91 90 90 89 90 86 84 86 82 79 78 75 74 69 65 63 61 59 55 55 54 48 49 47 39 40 36 34 31 29 29 29 28 25 25 26 26 26 27 28 28 30 32 34 35 36 37
94 94 92 89 92 90 85 83 90 89 84 83 85 84 76 72 72 68 65 64 62 56 60 54 49 52 49 44 43 40 39 33 32 33 32 30 29 31 31 31 32 33 33 35 38 40 40 41 40
95 94 94 93 92 87 83 85 92 94 87 88 87 87 82 77 75 75 72 66 66 61 57 59 56 49 52 55 48 46 43 44 39 36 36 37 37 36 36 38 38 38 38 41 44 46 48 50 47
101 98 96 92 96 93 85 83 96 96 92 91 89 91 87 83 80 81 78 73 70 67 63 62 62 59 55 56 57 52 49 49 49 43 42 41 42 42 42 43 42 42 44 43 44 48 51 53 54
104 101 99 97 105 94 90 90 94 98 95 93 93 94 93 90 85 83 78 80 78 72 68 65 62 64 61 57 60 60 55 53 54 56 54 52 49 48 47 48 49 49 46 45 46 48 50 51 50
106 104 102 106 107 100 93 88 91 96 96 95 97 101 98 96 90 85 81 80 83 77 73 70 66 65 65 64 61 62 63 60 58 58 55 52 51 53 51 50 52 51 53 54 52 53 53 55 58
108 106 103 107 103 94 90 85 85 87 94 96 101 105 100 98 94 92 86 81 81 83 78 73 69 67 68 71 66 63 62 67 65 63 60 59 59 61 58 57 53 54 55 57 57 56 57 59 61
105 95 97 94 96 89 86 76 80 83 91 99 103 107 105 103 100 99 93 84 79 81 81 77 74 68 69 72 71 68 65 66 70 68 65 63 61 61 60 62 62 62 63 60 63 64 65 66 68
90 92 89 87 89 86 76 77 69 79 89 99 105 109 109 109 104 103 95 90 86 82 80 81 78 74 72 71 72 74 68 66 68 69 70 69 67 65 66 68 67 68 66 66 67 68 69 71 72
81 80 79 80 81 82 59 80 64 75 88 99 106 109 112 112 108 106 101 94 91 86 83 82 82 80 78 75 73 75 72 71 68 69 72 72 72 74 72 70 70 68 69 70 71 71 71 71 72
76 74 75 78 78 68 67 75 56 73 87 97 104 111 118 115 114 109 104 98 95 90 87 85 83 83 83 81 78 78 78 76 74 73 71 70 70 72 75 76 76 75 74 74 73 73 74 75 75
76 76 76 79 73 66 71 65 57 73 80 96 101 110 117 117 115 113 108 104 99 95 92 89 86 85 86 85 84 81 81 79 78 77 75 72 71 72 73 73 73 75 76 76 76 73 72 72 74
78 78 75 75 76 73 72 64 60 67 76 89 100 105 115 118 118 118 113 108 104 98 95 93 90 88 88 88 87 85 83 83 84 83 80 76 76 76 76 77 75 74 74 75 75 75 78 80 80
78 73 70 60 71 76 67 64 56 61 70 77 92 103 111 119 119 119 117 111 107 102 98 97 95 91 89 89 89 88 86 85 86 86 84 82 81 80 80 80 80 81 80 80 81 81 83 85 84
78 72 65 70 73 82 68 60 60 53 64 71 78 91 104 116 120 120 119 115 111 108 104 102 100 97 93 91 90 90 89 88 87 87 87 87 86 85 83 83 83 83 83 83 83 82 83 85 86
75 71 65 71 80 79 68 67 68 63 55 67 66 75 92 109 121 120 120 120 118 113 110 107 104 101 98 95 93 91 90 90 88 88 88 88 88 89 89 87 87 87 86 87 87 86 87 87 88

GFSSGP_250_spd_138.txt.gz
Wind_Speed
31 30 31 30 33 31 33 34 30 29 34 36 36 33 24 20 21 18 19 22 20 20 21 28 26 31 30 31 32 31 24 18 11 8 12 16 16 19 23 29 35 32 30 29 28 27 28 26 25
34 33 33 33 30 33 39 37 33 31 30 33 36 38 36 30 30 25 23 24 21 22 24 24 26 24 26 30 31 29 27 22 15 11 10 14 16 19 21 25 28 34 30 29 27 26 26 23 21
38 37 35 33 32 33 36 38 37 32 33 31 31 34 37 36 37 33 29 25 26 21 22 21 27 19 23 25 28 28 27 23 17 13 12 13 16 18 20 25 27 30 31 30 29 27 26 22 22
41 41 39 38 32 32 36 39 37 36 36 36 33 31 34 38 41 41 37 28 26 20 19 21 21 15 19 22 25 26 24 22 20 12 9 9 12 16 18 21 25 26 30 31 30 30 27 24 23
45 44 43 40 38 35 37 40 40 39 38 36 35 37 35 33 37 41 42 38 29 21 17 20 17 16 12 18 21 24 24 22 20 16 9 6 8 12 15 17 21 24 28 29 29 28 28 27 22
47 49 48 45 43 41 42 43 42 40 42 39 39 39 36 35 35 36 40 37 32 26 18 19 14 17 14 16 17 19 22 22 19 20 13 8 4 8 11 15 16 19 23 26 27 26 24 22 19
47 50 52 51 45 46 50 50 49 45 43 42 42 43 39 38 37 36 40 40 34 30 20 16 16 14 15 13 14 14 17 18 19 16 19 13 7 1 6 9 11 13 15 18 21 23 22 18 16
49 53 53 49 46 46 47 49 49 48 47 47 47 47 44 43 40 40 38 42 40 33 28 19 20 18 18 15 12 13 13 13 14 15 13 13 13 9 6 6 9 12 14 14 15 15 15 13 12
56 57 56 52 51 51 51 53 53 52 50 52 50 49 49 46 47 42 45 42 41 40 38 31 27 25 21 20 17 12 13 13 9 10 10 7 7 7 6 4 5 9 12 12 12 11 11 11 11
59 59 61 59 56 54 54 58 58 58 56 56 56 54 52 50 51 47 46 49 46 45 44 41 34 29 28 24 22 19 14 15 15 10 8 7 6 5 0 1 3 6 9 9 9 10 11 10 12
62 63 64 64 58 58 60 64 64 65 65 62 57 56 55 56 55 53 51 49 50 48 49 47 40 35 30 29 28 24 24 18 18 17 14 11 11 10 9 8 8 9 10 11 12 13 14 16 17
67 68 67 69 66 64 65 68 67 67 72 65 61 62 62 62 60 57 57 53 50 55 50 51 47 43 38 35 31 30 25 28 22 23 21 19 19 18 17 16 14 14 15 16 17 18 19 21 22
71 72 71 71 72 69 71 73 70 74 74 69 69 68 69 68 67 65 61 60 56 54 55 54 55 50 47 44 37 34 31 30 31 28 27 27 25 26 24 22 21 22 22 22 23 24 26 27 27
75 74 74 74 77 76 76 74 72 80 79 77 74 73 74 76 74 71 68 65 62 59 56 59 59 58 52 49 47 41 37 35 36 36 34 35 32 32 31 30 29 29 29 28 29 30 30 30 30
77 77 76 76 85 83 79 73 79 82 82 86 88 85 82 80 76 75 70 70 67 64 65 61 62 64 62 54 50 49 48 43 40 41 41 43 39 37 38 37 37 36 37 36 35 35 35 35 35
80 80 80 86 88 89 84 74 84 86 90 91 90 86 83 79 75 72 70 70 72 68 64 66 64 68 66 66 59 55 52 52 49 45 42 46 46 44 43 44 43 43 42 42 41 41 41 40 41
85 86 87 87 90 92 91 82 87 91 93 93 91 88 84 79 75 74 73 71 73 71 71 67 66 68 71 71 68 64 60 58 55 51 50 49 49 50 51 50 49 47 48 47 46 46 45 47 48
91 90 92 93 93 98 96 88 88 93 95 94 91 87 86 83 79 74 73 75 74 74 73 72 69 70 73 74 75 72 68 65 60 59 58 58 58 55 50 52 54 53 54 54 53 53 52 52 52
97 96 96 95 99 102 99 96 93 94 94 94 95 91 87 85 83 77 74 75 75 75 76 77 73 77 73 76 79 78 75 70 68 65 64 64 64 63 59 57 55 60 59 57 56 56 58 58 59
101 100 97 100 103 102 102 95 97 93 93 95 96 95 90 86 85 83 78 75 77 77 78 77 78 77 76 80 82 83 80 76 71 70 71 70 68 68 67 66 63 63 61 62 62 62 63 63 63
102 100 103 103 109 106 99 93 92 91 93 97 97 98 96 92 85 84 84 81 79 80 83 82 81 79 81 81 84 85 86 85 81 75 73 74 73 71 71 70 68 67 67 69 70 70 69 68 69
102 104 105 104 105 103 105 93 91 95 95 97 99 99 97 90 89 91 91 87 86 86 86 85 85 84 85 84 86 88 88 89 89 84 79 76 78 77 76 75 73 72 72 74 75 75 72 71 72
99 105 107 108 110 108 98 105 89 94 93 97 98 95 97 99 99 98 97 93 86 86 87 88 89 89 88 87 87 87 91 95 92 89 84 82 80 82 82 82 80 79 79 79 80 80 79 78 77
106 107 109 111 111 108 100 108 86 94 95 98 101 99 102 106 105 101 97 90 83 81 85 88 88 90 89 91 91 90 92 97 95 93 89 88 83 84 85 87 87 86 84 83 83 82 84 82 79
110 107 111 111 109 103 104 108 88 98 98 101 105 107 107 109 108 102 93 83 80 79 82 86 89 90 90 91 92 95 95 98 99 97 95 94 90 91 92 89 88 87 88 88 88 88 85 86 84
108 110 110 111 111 108 109 102 97 106 104 104 111 113 111 105 100 92 83 81 80 79 80 83 89 91 92 94 95 96 98 100 101 102 100 97 97 96 95 92 90 88 89 89 90 90 88 88 85
108 110 109 114 114 115 111 110 108 113 112 113 114 112 105 95 88 82 79 77 76 78 79 83 86 91 94 98 101 102 102 103 105 105 105 103 101 100 98 94 93 92 91 90 91 89 89 89 88
110 111 114 116 118 118 115 115 117 117 115 106 98 97 98 91 78 74 71 70 72 73 76 79 84 89 94 97 102 105 107 109 108 107 107 107 105 103 101 99 97 97 96 95 94 92 92 91 91
115 115 117 120 119 122 121 118 112 105 92 85 85 83 81 81 79 72 68 70 70 72 72 76 79 85 90 94 100 104 106 108 109 110 111 109 108 107 105 104 102 101 101 100 100 98 96 94 94
118 118 122 121 120 121 121 111 93 83 77 78 79 78 75 74 76 74 67 72 73 72 72 75 78 82 86 91 96 102 108 108 108 111 113 114 112 110 109 108 106 105 105 105 105 104 102 100 99

GFSSGP_250_spd_141.txt.gz
Wind_Speed
30 28 28 29 33 33 32 37 34 30 31 32 31 32 35 36 34 37 36 32 32 35 35 36 32 30 24 29 26 29 33 27 18 14 14 16 16 19 22 27 29 31 33 30 32 30 29 30 30
33 30 27 27 31 32 33 30 33 33 35 35 33 31 34 34 34 36 38 39 42 40 35 34 34 27 23 24 26 27 32 28 24 16 12 15 16 18 22 26 28 32 32 32 32 30 30 31 31
37 35 33 32 32 31 32 32 32 31 32 33 32 30 33 35 33 33 38 40 42 42 40 36 36 31 20 21 25 25 27 29 27 21 15 12 15 17 20 23 24 28 32 33 31 32 30 29 29
40 39 36 34 36 36 34 33 30 30 34 35 35 30 31 34 35 34 35 37 37 39 42 40 39 23 21 19 25 24 25 28 27 23 16 10 10 12 16 21 24 26 28 32 33 32 31 30 31
40 37 35 39 40 41 38 36 38 35 36 35 35 33 32 35 36 35 35 35 35 36 37 37 32 33 21 20 22 21 22 23 24 24 18 13 9 10 12 17 20 23 25 29 32 31 33 31 30
40 40 38 35 39 43 42 41 38 38 36 38 36 36 35 37 37 36 37 36 39 36 35 38 35 28 20 21 21 22 18 19 22 20 22 15 11 8 9 11 14 19 22 26 30 32 33 32 29
45 45 42 39 39 42 44 42 42 43 43 43 40 36 35 35 38 39 39 38 39 41 38 37 39 32 29 24 23 22 18 17 17 18 19 18 14 10 6 8 11 17 22 26 27 32 31 30 28
47 47 45 42 44 47 48 46 46 44 43 41 41 42 40 39 40 39 41 40 39 43 44 42 39 43 41 37 23 22 22 16 17 14 15 13 14 10 8 6 2 6 11 15 19 21 22 20 19
51 51 49 46 46 47 49 51 48 47 48 47 44 44 44 44 45 46 44 42 41 40 44 43 45 41 44 44 38 27 28 20 18 15 12 11 11 12 5 2 1 4 5 7 9 11 13 15 15
55 57 56 52 51 51 54 53 51 51 51 49 48 49 52 51 50 50 49 46 44 42 42 46 47 47 46 44 44 37 30 29 21 18 16 14 13 11 9 7 5 5 9 11 12 14 15 15 16
59 60 60 58 57 56 56 55 53 55 53 51 50 53 54 55 54 53 53 54 52 50 46 44 45 49 49 46 44 44 35 32 31 25 21 19 17 15 16 13 12 10 12 14 15 16 17 17 17
63 64 64 64 62 62 61 59 57 60 61 57 59 59 59 58 56 56 56 57 58 58 54 52 50 48 50 51 48 46 42 37 34 32 30 25 24 23 21 23 19 17 16 18 18 20 21 22 23
66 69 66 67 67 66 64 63 58 67 63 61 61 66 65 64 65 64 64 60 63 65 66 60 57 52 51 54 52 50 48 42 40 36 36 33 31 29 28 28 29 27 25 25 25 26 27 28 29
71 72 71 69 73 70 68 62 62 73 69 68 67 68 71 73 73 73 69 67 69 69 69 69 62 58 56 52 54 54 56 55 48 44 40 42 37 37 36 35 34 34 33 33 32 34 34 35 35
75 73 72 73 75 74 70 63 71 74 73 72 73 73 75 79 81 79 80 75 73 71 67 66 65 62 60 56 56 56 58 61 59 55 48 46 46 42 43 43 43 40 40 41 40 40 40 40 41
77 74 74 76 75 77 75 68 75 77 76 76 78 80 82 83 85 87 86 83 79 71 67 65 66 65 64 62 58 58 58 63 65 60 59 54 52 50 47 48 50 49 47 47 49 47 47 46 46
76 77 77 76 78 78 78 74 79 83 80 82 84 86 86 88 90 91 91 90 85 75 68 65 65 66 65 65 64 62 63 64 68 69 65 65 60 57 57 55 54 52 53 54 54 53 53 52 52
83 83 83 83 86 88 87 83 84 85 82 84 89 90 90 93 93 94 94 92 88 78 72 68 67 69 68 69 69 69 66 66 69 74 73 69 67 67 62 59 58 57 57 60 60 60 59 59 59
89 88 88 90 93 92 92 86 84 87 90 94 95 96 97 96 98 99 98 94 87 81 76 72 70 70 69 71 73 73 71 68 70 75 78 77 75 73 72 68 66 64 63 62 61 63 66 66 65
92 92 92 94 95 94 94 87 92 93 94 96 97 98 97 101 100 97 97 95 87 81 79 78 75 72 68 69 74 75 76 74 73 73 79 82 83 82 78 76 75 73 71 72 70 67 66 62 61
94 96 99 101 103 102 102 94 95 95 95 98 101 100 101 103 104 99 96 91 86 80 78 77 75 73 73 70 73 78 79 79 78 80 79 85 87 88 86 84 81 80 78 78 79 79 76 74 73
102 107 110 109 109 104 105 102 96 95 96 98 103 106 105 105 103 100 96 90 85 77 73 74 78 77 78 78 77 81 81 82 84 81 80 85 90 91 91 90 87 87 84 81 82 81 81 82 82
106 108 109 112 115 111 107 115 97 99 99 99 104 106 108 107 105 100 95 88 84 81 78 77 79 83 85 85 84 83 86 86 87 86 85 86 89 95 95 95 94 91 90 88 87 87 84 85 84
111 113 115 115 117 112 107 111 105 97 100 105 110 108 108 106 101 96 94 91 90 88 87 85 86 88 88 88 85 84 85 88 89 90 90 90 90 94 98 100 100 99 95 93 91 92 89 88 88
110 113 116 117 117 114 108 109 106 94 101 108 113 110 105 103 100 98 97 97 95 96 96 96 96 93 89 87 85 84 86 89 92 94 92 94 94 96 100 103 104 103 102 100 96 95 94 95 94
112 117 118 113 113 114 110 110 102 107 106 111 108 105 104 101 101 104 104 103 103 105 105 104 101 94 85 82 81 83 87 89 92 94 97 98 97 100 102 104 106 105 104 101 93 101 99 99 98
113 113 111 115 113 115 112 111 109 108 106 105 104 101 100 105 106 108 111 112 112 111 109 96 87 84 80 80 81 82 84 88 92 95 98 100 101 101 105 105 107 107 107 106 104 100 103 102 101
113 111 112 118 120 120 119 110 105 107 107 109 105 103 102 108 113 116 117 115 110 99 89 84 80 78 77 77 79 81 83 85 87 93 95 99 103 105 107 110 109 108 108 109 109 104 106 106 105
112 115 116 118 116 116 117 111 109 109 107 108 110 110 111 113 115 117 113 106 91 82 79 78 77 75 74 73 74 77 79 85 85 89 93 97 101 107 109 112 115 114 112 109 112 111 111 106 105
115 114 115 116 112 114 113 104 111 109 110 111 113 116 118 119 116 105 91 89 85 77 73 72 73 73 72 72 71 73 78 83 85 84 89 93 99 104 105 112 114 115 115 116 114 111 110 111 110

GFSSGP_250_spd_147.txt.gz
Wind_Speed
23 22 22 20 18 19 21 19 20 21 21 20 20 19 21 23 23 24 23 24 25 26 27 28 28 29 31 30 29 33 30 35 36 32 31 30 22 20 17 17 20 20 23 34 41 41 41 42 43
25 24 22 22 20 21 20 21 22 22 22 20 20 17 18 22 23 24 24 27 28 27 28 28 29 30 29 30 31 28 32 34 33 30 31 30 28 21 21 20 22 24 23 26 32 38 37 40 41
28 26 25 25 26 26 25 25 25 25 24 22 21 19 24 24 25 26 27 28 28 28 28 29 29 29 29 31 31 29 29 35 36 28 30 30 30 29 21 20 21 27 28 28 34 34 37 39 43
31 30 29 31 32 31 30 29 29 27 28 28 25 24 25 25 24 25 25 24 23 24 26 27 28 30 30 31 30 32 26 33 34 30 28 30 29 30 27 20 20 23 31 34 35 33 35 35 37
36 35 35 35 35 35 33 30 27 27 26 26 26 25 25 25 24 24 21 23 24 24 28 30 31 29 28 30 29 31 32 32 33 32 35 27 28 30 27 27 21 22 25 32 37 38 40 40 36
36 36 36 37 37 37 34 31 29 28 28 29 27 26 26 26 27 27 27 28 26 25 29 30 31 32 32 32 32 32 32 34 33 31 32 30 27 26 32 27 25 21 20 23 29 34 35 35 34
39 39 38 38 37 37 36 34 33 33 33 32 31 30 27 29 30 32 34 33 31 30 29 31 32 31 32 35 35 33 33 33 33 33 34 30 28 28 27 31 23 23 24 22 24 29 30 34 35
41 40 40 39 38 38 38 38 38 37 35 35 34 32 33 35 36 36 36 34 33 33 33 33 32 32 35 37 38 37 37 36 36 34 34 32 33 31 29 29 27 22 22 22 22 23 24 27 32
47 44 42 41 41 41 39 39 39 41 40 38 37 38 39 39 40 40 38 35 37 38 40 38 37 36 38 41 43 44 44 41 40 39 36 33 32 35 35 31 29 24 21 21 21 21 22 24 27
53 52 48 46 47 47 46 45 44 44 44 44 43 42 44 46 45 44 42 40 40 40 42 43 42 43 45 45 46 48 49 49 47 44 42 39 34 35 37 38 34 27 24 22 20 21 21 20 24
56 53 52 51 52 53 52 51 50 50 48 48 48 50 50 50 50 48 45 44 44 42 43 44 44 45 48 49 52 52 52 54 53 51 48 44 42 38 38 41 40 35 30 25 23 22 21 21 22
61 60 59 57 59 59 57 57 58 57 53 51 52 55 56 55 52 53 50 49 48 47 47 48 49 51 53 54 56 56 55 56 57 56 53 49 46 45 43 42 43 41 40 33 29 28 26 26 25
64 64 64 65 65 64 63 62 63 64 59 59 58 57 58 58 58 56 55 53 54 54 53 55 57 58 57 56 59 61 62 60 59 57 58 55 50 49 47 46 46 46 46 43 42 35 35 33 32
63 61 62 65 64 63 62 62 66 66 61 62 59 58 59 63 62 60 58 59 57 56 58 62 65 66 63 61 64 64 66 67 66 62 59 59 56 53 50 50 51 52 51 51 47 46 41 42 40
63 61 64 69 66 64 61 60 67 62 60 61 60 61 61 62 63 63 63 64 62 61 62 67 69 69 69 69 68 66 68 70 70 67 63 60 60 58 56 54 55 56 55 56 57 55 55 50 49
61 63 67 72 70 66 59 63 71 67 63 63 64 63 62 63 66 68 66 68 68 66 70 74 74 74 75 74 73 73 73 74 73 71 67 63 61 63 62 61 60 59 60 60 63 61 61 62 57
63 66 68 71 72 66 66 63 75 70 66 63 65 67 67 69 72 72 71 72 72 74 77 80 79 80 80 79 79 80 79 79 79 71 67 65 63 63 66 66 67 67 65 66 65 67 67 68 69
71 68 67 66 73 72 73 64 71 75 69 68 71 72 74 75 75 74 75 74 78 80 83 84 85 84 83 85 85 85 86 88 84 74 68 66 65 65 66 70 72 72 71 70 71 72 73 74 73
79 83 83 78 73 72 71 70 74 78 76 77 77 77 79 81 81 81 78 81 82 85 88 90 92 92 91 92 91 93 96 92 89 77 70 66 65 66 67 69 74 74 77 75 75 77 79 79 79
80 83 84 83 84 81 77 71 71 76 80 81 84 86 85 84 86 87 87 88 88 90 91 94 96 99 100 99 99 100 100 97 85 80 72 68 66 66 67 70 72 75 77 79 81 82 82 83 85
87 84 87 87 87 86 81 77 77 79 84 89 88 87 87 88 90 93 94 93 95 96 96 98 103 103 102 105 107 106 100 92 85 77 70 68 66 66 66 67 69 75 78 79 81 88 88 86 88
92 91 88 90 87 83 83 77 77 84 89 94 96 94 94 95 97 98 97 98 100 101 103 106 107 108 110 110 107 105 102 90 85 76 71 68 66 66 68 69 67 73 76 81 82 85 90 92 91
93 93 93 90 90 86 83 83 76 84 92 96 97 98 98 96 96 98 101 103 104 107 109 110 112 112 111 104 108 102 95 90 84 76 72 71 71 70 70 73 75 74 75 81 86 87 91 92 93
93 96 98 95 96 92 89 93 81 88 87 91 94 97 98 100 102 103 106 108 109 111 112 113 116 114 110 108 104 100 95 88 81 76 76 78 79 80 80 83 83 82 82 84 87 90 90 91 93
98 101 103 103 102 99 99 97 86 89 93 98 100 101 103 106 107 108 111 113 114 115 116 115 109 106 105 103 102 99 91 85 81 79 81 85 89 91 91 89 87 87 86 88 85 87 90 92 94
103 104 107 110 109 106 102 94 92 96 99 102 104 106 110 112 114 115 113 114 115 111 106 104 107 106 103 103 102 97 91 86 86 87 89 91 94 95 93 91 89 89 93 92 89 90 93 95 98
108 108 111 112 110 105 100 92 89 94 96 98 100 102 104 109 112 114 113 110 106 108 108 107 106 105 107 105 101 94 91 92 94 95 95 94 91 91 90 87 88 89 90 92 96 95 95 97 99
109 110 112 112 110 106 99 92 90 93 93 95 97 98 100 102 104 103 103 108 109 107 107 108 108 107 104 99 95 94 96 99 100 99 91 85 82 81 82 81 82 85 87 89 91 93 94 98 102
105 105 107 110 110 111 102 94 93 95 97 99 100 100 98 99 101 102 103 104 107 109 109 107 104 101 99 99 102 103 104 103 103 90 81 77 75 75 76 76 77 79 82 85 87 89 92 96 101
110 108 108 108 110 111 110 96 100 100 100 103 102 102 102 103 103 103 104 104 104 104 104 103 101 101 103 106 110 111 111 106 91 79 75 74 72 72 73 76 75 77 79 82 84 86 87 92 94